{"data":{"norad_id":48136,"intl_designator":"2021-027AW","name":"STARLINK-2479","alt_names":[],"object_type":"PAYLOAD","status":"ACTIVE","operator":null,"country":"US","launch_date":"2021-04-07","launch_site_code":"AFETR","launch_vehicle":null,"mission":null,"orbit_class":"UNKNOWN","rcs_meters":null,"size_class":null,"mass_kg":null,"dimensions":null,"purposes":["comms"],"wikipedia_slug":null,"has_3d_model":false,"image_url":null,"decayed_at":null,"tle_current":{"epoch":"2026-05-25T01:58:01.725024Z","epoch_age_seconds":67303,"freshness":"FRESH","line1":"1 48136U 21027AW  26145.08196441  .00000934  00000+0  41859-4 0  9991","line2":"2 48136  53.1586 170.2390 0001438  87.9917 272.1249 15.31700638284219","mean_motion":15.31700638,"eccentricity":0.0001438,"inclination_deg":53.1586,"raan_deg":170.239,"arg_perigee_deg":87.9917,"mean_anomaly_deg":272.1249,"bstar":4.1859e-5,"rev_number":28421,"period_min":94.013148801731,"perigee_km":469.75322514308,"apogee_km":471.72296161993,"semimajor_km":6848.8750933815,"source":"CELESTRAK","updated_at":"2026-05-25T13:38:16.649650Z"}}}